Location: Arboyeti
(42.1122°N, 44.6017°E)
Time: 16:34:11
(UTC+00:00)

Meteor 2-4 Rocket - Pass Details

Date: 19 April 2021
Orbit: 799 x 909 km, 81.2° (Epoch: 07 May)

Event Time Altitude Azimuth Distance (km) Brightness Sun altitude
Exits shadow 23:25:09 76° 208° (SSW) 939 3.7 -26.9°
Maximum altitude 23:25:39 85° 279° (W) 917 3.7 -26.9°
Drops below altitude 10° 23:31:35 10° 9° (N) 2,587 6.9 -26.2°
Sets 23:34:03 0° 10° (N) 3,521 7.8 -25.9°
